This is the latest recevied weather packets stored in our database for station/object N4DBJ. If no packets are shown the sender has not sent any weather packets the latest 10 day(s).
| Time | Temp. | Humidity | Pressure | Rain* | Wind** | Luminosity | Snow |
|---|---|---|---|---|---|---|---|
| 1777934872 | 26.11° C | 41% | 1007.4 hPa | 0 mm | - | 170 W/m² | - |
| 1777934570 | 26.11° C | 43% | 1007.5 hPa | 0 mm | - | 193 W/m² | - |
| 1777934266 | 26.11° C | 43% | 1007.6 hPa | 0 mm | - | 206 W/m² | - |
| 1777933961 | 25.56° C | 43% | 1007.7 hPa | 0 mm | - | 96 W/m² | - |
| 1777933659 | 25.56° C | 45% | 1007.6 hPa | 0 mm | - | 239 W/m² | - |
| 1777933355 | 25.56° C | 44% | 1007.5 hPa | 0 mm | - | 75 W/m² | - |
| 1777933053 | 25.56° C | 45% | 1007.6 hPa | 0 mm | - | 259 W/m² | - |
| 1777932750 | 26.11° C | 45% | 1007.8 hPa | 0 mm | - | 86 W/m² | - |
| 1777932446 | 26.67° C | 44% | 1007.5 hPa | 0 mm | - | 73 W/m² | - |
| 1777932144 | 26.11° C | 44% | 1007.6 hPa | 0 mm | - | 314 W/m² | - |
| 1777931841 | 26.11° C | 44% | 1007.5 hPa | 0 mm | - | 287 W/m² | - |
| 1777931538 | 26.67° C | 44% | 1007.7 hPa | 0 mm | - | 335 W/m² | - |
| 1777931233 | 26.67° C | 43% | 1007.5 hPa | 0 mm | - | 395 W/m² | - |
| 1777930930 | 26.67° C | 43% | 1007.2 hPa | 0 mm | - | 353 W/m² | - |
| 1777930627 | 27.22° C | 43% | 1007.4 hPa | 0 mm | - | 359 W/m² | - |
| 1777930323 | 26.67° C | 44% | 1007.2 hPa | 0 mm | - | 400 W/m² | - |
| 1777930020 | 25.56° C | 44% | 1007.4 hPa | 0 mm | - | 421 W/m² | - |
| 1777929717 | 26.67° C | 43% | 1007.3 hPa | 0 mm | - | 108 W/m² | - |
| 1777929414 | 28.33° C | 43% | 1007.4 hPa | 0 mm | - | 503 W/m² | - |
| 1777929110 | 27.22° C | 44% | 1007.5 hPa | 0 mm | - | 503 W/m² | - |
| 1777928808 | 26.67° C | 45% | 1007.3 hPa | 0 mm | - | 526 W/m² | - |
| 1777928504 | 26.67° C | 43% | 1007.4 hPa | 0 mm | - | 541 W/m² | - |
| 1777928202 | 26.67° C | 43% | 1007.5 hPa | 0 mm | - | 523 W/m² | - |
| 1777927899 | 26.67° C | 43% | 1007.5 hPa | 0 mm | - | 542 W/m² | - |
| 1777927597 | 26.67° C | 43% | 1007.4 hPa | 0 mm | - | 565 W/m² | - |
* Rain latest hour (hover to see other rain measurements)
** Current wind speed in m/s (hover to see current wind gust speed)